This is the latest recevied weather packets stored in our database for station/object IU1WWE-10. If no packets are shown the sender has not sent any weather packets the latest 10 day(s).
| Time | Temp. | Humidity | Pressure | Rain* | Wind** | Luminosity | Snow |
|---|---|---|---|---|---|---|---|
| 1788000962 | 23.33° C | 48% | 1018.2 hPa | 0.25 mm | - | - | - |
| 1788000660 | 23.33° C | 49% | 1018.1 hPa | 0.25 mm | - | - | - |
| 1788000358 | 23.33° C | 48% | 1018.4 hPa | 0.25 mm | - | - | - |
| 1788000056 | 23.33° C | 48% | 1018.4 hPa | 0.25 mm | - | - | - |
| 1787999753 | 23.33° C | 49% | 1018.4 hPa | 0.25 mm | - | - | - |
| 1787999452 | 22.78° C | 50% | 1018.5 hPa | 0.25 mm | - | - | - |
| 1787999149 | 22.78° C | 52% | 1018.5 hPa | 0.25 mm | - | - | - |
| 1787998847 | 22.78° C | 51% | 1018.6 hPa | 0.25 mm | - | - | - |
| 1787998545 | 22.22° C | 54% | 1018.6 hPa | 0.25 mm | - | - | - |
| 1787998243 | 22.22° C | 53% | 1018.6 hPa | 0.25 mm | - | - | - |
| 1787997941 | 22.22° C | 55% | 1018.7 hPa | 0.25 mm | - | - | - |
| 1787997639 | 22.22° C | 55% | 1018.8 hPa | 0.25 mm | - | - | - |
| 1787997337 | 21.67° C | 60% | 1018.9 hPa | 0.25 mm | - | - | - |
| 1787997035 | 21.67° C | 55% | 1019 hPa | 0.25 mm | - | - | - |
| 1787996733 | 21.11° C | 65% | 1019 hPa | 0.25 mm | - | - | - |
| 1787996431 | 20° C | 67% | 1019.2 hPa | 0.25 mm | - | - | - |
| 1787996129 | 19.44° C | 66% | 1019.2 hPa | 0.25 mm | - | - | - |
| 1787995827 | 18.33° C | 67% | 1019.4 hPa | 0.25 mm | - | - | - |
| 1787995525 | 18.33° C | 67% | 1019.4 hPa | 0.25 mm | - | - | - |
| 1787995222 | 17.78° C | 67% | 1019.4 hPa | 0.25 mm | - | - | - |
| 1787994920 | 17.78° C | 67% | 1019.4 hPa | 0.25 mm | - | - | - |
| 1787994618 | 17.22° C | 68% | 1019.5 hPa | 0.25 mm | - | - | - |
| 1787994316 | 16.67° C | 66% | 1019.5 hPa | 0.25 mm | - | - | - |
| 1787994014 | 16.67° C | 71% | 1019.6 hPa | 0.25 mm | - | - | - |
| 1787993712 | 16.11° C | 72% | 1019.5 hPa | 0.25 mm | - | - | - |
* Rain since midnight (hover to see other rain measurements)
** Current wind speed in m/s (hover to see current wind gust speed)